Henderson, NV

1:21 PM PDT on July 21, 2017 (GMT -0700)
Henderson

Weather History for KHND - April, 2014

Change the Weather History Date:

Sunday, April 13, 2014

  Actual Average (KLAS) Record (KLAS)
Temperature  
Mean Temperature 72 °F -  
Max Temperature 81 °F 76 °F 93 °F (1990)
Min Temperature 63 °F 50 °F 35 °F (1965)
Cooling Degree Days 7    
Growing Degree Days 22 (Base 50)    
Moisture  
Dew Point 14 °F    
Average Humidity 15    
Maximum Humidity 35    
Minimum Humidity 4    
Precipitation  
Precipitation 0.00 in - - ()
Sea Level Pressure  
Sea Level Pressure 29.81 in    
Wind  
Wind Speed 14 mph (North)    
Max Wind Speed 25 mph    
Max Gust Speed 33 mph    
Visibility 10 miles    
Events Rain    
Averages and records for this station are not official NWS values.
T = Trace of Precipitation, MM = Missing Value Source: NWS Daily Summary

Daily Weather History Graph

Daily Weather History Graph

Search for Another Location

Airport or City:

Trip Planner

Search our weather history database for the weather conditions in past years. The results will help you decide how hot, cold, wet, or windy it might be!

Date:

Astronomy

Apr. 13, 2014 Rise Set
Actual Time 6:10 AM PDT 7:12 PM PDT
Civil Twilight 5:43 AM PDT 7:38 PM PDT
Nautical Twilight 5:12 AM PDT 8:10 PM PDT
Astronomical Twilight 4:40 AM PDT 8:42 PM PDT
Moon 5:56 PM PDT (4/13) 5:08 AM PDT (4/13)
Length of Visible Light 13h 55m
Length of Day
13h 02m
Waxing Gibbous, 97% of the Moon is Illuminated
Apr 13
Waxing Gibbous
Apr 15
Full
Apr 22
Last Quarter
Apr 28
New
May 6
First Quarter

Hourly Weather History & Observations

Time (PDT) Temp. Dew Point Humidity Pressure Visibility Wind Dir Wind Speed Gust Speed Precip Events Conditions
12:56 AM 70.9 °F 34.9 °F 27% 29.63 in 10.0 mi South 11.5 mph - 0.00 in Rain Light Rain
2:56 AM 66.9 °F 34.9 °F 31% 29.64 in 10.0 mi South 8.1 mph - 0.00 in Rain Heavy Rain
3:56 AM 66.9 °F 34.9 °F 31% 29.66 in 10.0 mi South 6.9 mph - 0.00 in Rain Heavy Rain
4:56 AM 65.8 °F 34.9 °F 32% 29.68 in 10.0 mi SSW 13.8 mph - 0.00 in Rain Heavy Rain
5:56 AM 63.9 °F 34.9 °F 34% 29.70 in 10.0 mi South 12.7 mph - 0.00 in   Clear
6:56 AM 63.0 °F 34.9 °F 35% 29.75 in 10.0 mi SW 9.2 mph - N/A   Clear
7:56 AM 68.0 °F 34.9 °F 29% 29.77 in 10.0 mi SW 11.5 mph - N/A   Clear
8:56 AM 74.8 °F 23.0 °F 14% 29.78 in 10.0 mi North 19.6 mph 24.2 mph N/A   Clear
9:56 AM 77.9 °F 22.1 °F 13% 29.79 in 10.0 mi North 18.4 mph 27.6 mph N/A   Clear
10:56 AM 79.9 °F 17.1 °F 10% 29.80 in 10.0 mi North 19.6 mph 26.5 mph N/A   Clear
11:56 AM 79.9 °F 10.0 °F 7% 29.80 in 10.0 mi NNW 23.0 mph 33.4 mph N/A   Clear
12:56 PM 81.9 °F 5.0 °F 5% 29.80 in 10.0 mi NNE 25.3 mph 33.4 mph N/A   Clear
1:56 PM 81.0 °F 1.0 °F 5% 29.81 in 10.0 mi NNE 24.2 mph 29.9 mph N/A   Clear
2:56 PM 81.0 °F -1.8 °F 4% 29.80 in 10.0 mi North 21.9 mph 29.9 mph N/A   Clear
3:56 PM 81.0 °F -0.9 °F 4% 29.81 in 10.0 mi North 19.6 mph 26.5 mph N/A   Clear
4:56 PM 79.9 °F 0.1 °F 5% 29.82 in 10.0 mi NNW 18.4 mph 28.8 mph N/A   Clear
5:56 PM 77.0 °F -1.8 °F 5% 29.84 in 10.0 mi NE 13.8 mph 21.9 mph N/A   Clear
6:56 PM 72.9 °F -1.8 °F 5% 29.87 in 10.0 mi NE 16.1 mph - N/A   Clear
7:56 PM 70.0 °F 0.1 °F 6% 29.91 in 10.0 mi NE 12.7 mph - 0.00 in Rain Heavy Rain
8:56 PM 68.0 °F 0.1 °F 7% 29.95 in 10.0 mi NNE 16.1 mph 24.2 mph 0.00 in   Clear
9:56 PM 66.9 °F 3.0 °F 8% 30.00 in 10.0 mi NNE 10.4 mph 19.6 mph N/A   Clear
10:56 PM 65.8 °F 6.1 °F 10% 30.02 in 10.0 mi NNE 12.7 mph - N/A   Clear
11:56 PM 63.9 °F 7.2 °F 11% 30.04 in 10.0 mi North 12.7 mph - 0.00 in   Clear